| time (UTC) | temp F | wind direction | speed MPH | gust MPH | rain 1hr in | rain 24hr in | rain mn in | humidity % | barometer mb |
| 20260503055002 | 55 | 160 | 1.0 | 3.0 | 0.00 | 0.95 | 0.00 | 95 | 1013.1 |
| 20260503054502 | 55 | 144 | 1.0 | 3.0 | 0.00 | 0.95 | 0.00 | 95 | 1013.0 |
| 20260503054002 | 55 | 131 | 1.0 | 2.0 | 0.00 | 0.95 | 0.00 | 95 | 1013.0 |
| 20260503053502 | 55 | 121 | 1.0 | 3.0 | 0.00 | 0.95 | 0.00 | 95 | 1013.0 |
| 20260503053023 | 55 | 109 | 1.0 | 3.0 | 0.00 | 0.95 | 0.00 | 96 | 1012.9 |
| 20260503052502 | 55 | 110 | 1.0 | 2.0 | 0.00 | 0.95 | 0.00 | 96 | 1012.9 |
| 20260503052002 | 55 | 118 | 1.0 | 2.0 | 0.00 | 0.95 | 0.00 | 96 | 1013.3 |
| 20260503051523 | 55 | 107 | 0.0 | 2.0 | 0.00 | 0.95 | 0.00 | 96 | 1013.1 |
| 20260503051002 | 55 | 85 | 0.0 | 1.0 | 0.00 | 0.95 | 0.00 | 96 | 1013.0 |
| 20260503050502 | 55 | 73 | 0.0 | 2.0 | 0.00 | 0.95 | 0.00 | 96 | 1013.2 |
| 20260503050002 | 55 | 70 | 1.0 | 2.0 | 0.00 | 0.95 | 0.00 | 96 | 1013.0 |
| 20260503045502 | 55 | 63 | 1.0 | 2.0 | 0.00 | 0.95 | 0.00 | 96 | 1013.1 |
| 20260503045002 | 55 | 45 | 0.0 | 1.0 | 0.00 | 0.95 | 0.00 | 96 | 1012.9 |
| 20260503044523 | 55 | 41 | 0.0 | 1.0 | 0.00 | 0.95 | 0.00 | 96 | 1013.3 |
| 20260503044023 | 55 | 47 | 0.0 | 1.0 | 0.00 | 0.95 | 0.00 | 96 | 1013.2 |
| 20260503043523 | 55 | 46 | 0.0 | 1.0 | 0.00 | 0.95 | 0.00 | 96 | 1013.1 |
| 20260503043002 | 55 | 60 | 0.0 | 1.0 | 0.00 | 0.95 | 0.00 | 96 | 1013.1 |
| 20260503042523 | 55 | 71 | 1.0 | 4.0 | 0.00 | 0.95 | 0.00 | 96 | 1013.1 |
| 20260503042002 | 55 | 76 | 2.0 | 4.0 | 0.00 | 0.95 | 0.00 | 96 | 1012.9 |
| 20260503041523 | 55 | 78 | 2.0 | 4.0 | 0.00 | 0.95 | 0.00 | 96 | 1013.2 |
| 20260503041023 | 55 | 74 | 2.0 | 4.0 | 0.00 | 0.95 | 0.00 | 96 | 1013.2 |
| 20260503040502 | 54 | 72 | 3.0 | 4.0 | 0.00 | 0.95 | 0.00 | 96 | 1013.1 |
| 20260503040002 | 55 | 72 | 3.0 | 4.0 | 0.00 | 0.95 | 0.00 | 96 | 1013.2 |
| 20260502170503 | 61 | 235 | 9.0 | 17.0 | 0.00 | 0.95 | 0.95 | 74 | 1014.8 |
| 20260502164003 | 61 | 242 | 6.0 | 11.0 | 0.00 | 0.95 | 0.95 | 73 | 1014.7 |
| 20260502163503 | 61 | 237 | 6.0 | 11.0 | 0.00 | 0.95 | 0.95 | 74 | 1014.9 |
| 20260502163003 | 61 | 234 | 6.0 | 11.0 | 0.00 | 0.95 | 0.95 | 73 | 1014.6 |
| 20260502162503 | 61 | 234 | 7.0 | 14.0 | 0.00 | 0.95 | 0.95 | 74 | 1014.8 |
| 20260502162003 | 62 | 234 | 8.0 | 14.0 | 0.00 | 0.95 | 0.95 | 74 | 1015.0 |
| 20260502161503 | 62 | 231 | 8.0 | 16.0 | 0.00 | 0.95 | 0.95 | 73 | 1014.8 |
| 20260502161003 | 62 | 229 | 9.0 | 16.0 | 0.00 | 0.95 | 0.95 | 74 | 1014.9 |
| 20260502160503 | 62 | 224 | 10.0 | 16.0 | 0.00 | 0.95 | 0.95 | 74 | 1014.8 |
| 20260502152003 | 66 | 192 | 9.0 | 18.0 | 0.00 | 0.95 | 0.95 | 68 | 1015.0 |
| 20260502151503 | 66 | 189 | 10.0 | 21.0 | 0.00 | 0.95 | 0.95 | 69 | 1014.8 |
| 20260502151003 | 67 | 191 | 10.0 | 21.0 | 0.00 | 0.95 | 0.95 | 67 | 1015.0 |
| 20260502150503 | 67 | 180 | 9.0 | 18.0 | 0.00 | 0.95 | 0.95 | 68 | 1015.1 |
| 20260502130503 | 57 | 257 | 1.0 | 3.0 | 0.63 | 0.94 | 0.94 | 97 | 1016.6 |
| 20260502123503 | 57 | 243 | 9.0 | 31.0 | 0.26 | 0.57 | 0.57 | 96 | 1017.4 |
| 20260502123003 | 63 | 184 | 4.0 | 9.0 | 0.00 | 0.31 | 0.31 | 78 | 1017.1 |
| 20260502122503 | 63 | 145 | 5.0 | 10.0 | 0.00 | 0.31 | 0.31 | 78 | 1016.5 |
| 20260502122003 | 63 | 148 | 5.0 | 10.0 | 0.00 | 0.31 | 0.31 | 77 | 1016.6 |
| 20260502121524 | 63 | 170 | 5.0 | 11.0 | 0.00 | 0.31 | 0.31 | 78 | 1016.9 |
| 20260502121003 | 63 | 166 | 6.0 | 13.0 | 0.00 | 0.31 | 0.31 | 78 | 1017.1 |
| 20260502120503 | 63 | 158 | 7.0 | 13.0 | 0.00 | 0.31 | 0.31 | 78 | 1016.9 |
| 20260502115503 | 64 | 153 | 5.0 | 11.0 | 0.00 | 0.31 | 0.31 | 78 | 1017.2 |
| 20260502115024 | 63 | 152 | 5.0 | 11.0 | 0.00 | 0.31 | 0.31 | 80 | 1017.2 |
| 20260502114503 | 63 | 165 | 5.0 | 11.0 | 0.00 | 0.31 | 0.31 | 80 | 1017.3 |
| 20260502114003 | 62 | 168 | 5.0 | 11.0 | 0.00 | 0.31 | 0.31 | 80 | 1017.3 |
| 20260502113524 | 63 | 170 | 5.0 | 10.0 | 0.00 | 0.31 | 0.31 | 81 | 1017.5 |
| 20260502113024 | 62 | 177 | 5.0 | 10.0 | 0.00 | 0.31 | 0.31 | 81 | 1017.7 |
| 20260502112503 | 62 | 191 | 5.0 | 10.0 | 0.00 | 0.31 | 0.31 | 81 | 1017.7 |
| 20260502112024 | 62 | 184 | 6.0 | 13.0 | 0.00 | 0.31 | 0.31 | 82 | 1017.6 |
| 20260502111503 | 61 | 187 | 6.0 | 13.0 | 0.00 | 0.31 | 0.31 | 82 | 1017.8 |
| 20260502111003 | 61 | 184 | 5.0 | 10.0 | 0.00 | 0.31 | 0.31 | 84 | 1017.8 |
| 20260502110503 | 61 | 175 | 4.0 | 10.0 | 0.00 | 0.31 | 0.31 | 86 | 1018.1 |
| 20260502110003 | 61 | 180 | 4.0 | 8.0 | 0.00 | 0.31 | 0.31 | 86 | 1017.9 |
| 20260502105503 | 61 | 165 | 4.0 | 9.0 | 0.00 | 0.31 | 0.31 | 88 | 1018.1 |
| 20260502105003 | 60 | 164 | 5.0 | 9.0 | 0.00 | 0.31 | 0.31 | 89 | 1018.0 |
| 20260502104503 | 60 | 172 | 6.0 | 11.0 | 0.00 | 0.31 | 0.31 | 90 | 1018.3 |
| 20260502104003 | 60 | 171 | 6.0 | 11.0 | 0.00 | 0.31 | 0.31 | 91 | 1018.2 |
| 20260502103503 | 59 | 158 | 5.0 | 9.0 | 0.00 | 0.31 | 0.31 | 93 | 1018.4 |
| 20260502103003 | 59 | 142 | 4.0 | 10.0 | 0.00 | 0.31 | 0.31 | 94 | 1018.1 |
| 20260502102503 | 59 | 141 | 4.0 | 10.0 | 0.00 | 0.31 | 0.31 | 94 | 1018.2 |
| 20260502102003 | 59 | 137 | 4.0 | 10.0 | 0.07 | 0.31 | 0.31 | 94 | 1018.4 |
| 20260502101503 | 59 | 132 | 5.0 | 10.0 | 0.07 | 0.31 | 0.31 | 95 | 1018.6 |
| 20260502101003 | 58 | 138 | 5.0 | 10.0 | 0.07 | 0.31 | 0.31 | 95 | 1018.7 |
| 20260502100503 | 58 | 140 | 4.0 | 8.0 | 0.07 | 0.31 | 0.31 | 96 | 1018.7 |
| 20260502091503 | 58 | 136 | 1.0 | 6.0 | 0.02 | 0.24 | 0.24 | 97 | 1018.6 |
| 20260502091003 | 58 | 111 | 1.0 | 3.0 | 0.02 | 0.24 | 0.24 | 97 | 1018.4 |
| 20260502090503 | 58 | 116 | 1.0 | 4.0 | 0.02 | 0.24 | 0.24 | 97 | 1018.2 |
| 20260502071503 | 57 | 154 | 1.0 | 6.0 | 0.02 | 0.06 | 0.06 | 96 | 1018.7 |
| 20260502071003 | 56 | 119 | 1.0 | 4.0 | 0.06 | 0.06 | 0.06 | 96 | 1018.7 |
| 20260502070503 | 57 | 121 | 1.0 | 6.0 | 0.06 | 0.06 | 0.06 | 96 | 1018.9 |
| 20260502070003 | 56 | 132 | 2.0 | 6.0 | 0.06 | 0.06 | 0.06 | 95 | 1018.3 |
| 20260502065503 | 56 | 140 | 2.0 | 6.0 | 0.06 | 0.06 | 0.06 | 95 | 1018.4 |
| 20260502065024 | 56 | 136 | 3.0 | 6.0 | 0.06 | 0.06 | 0.06 | 95 | 1018.7 |
| 20260502064503 | 56 | 128 | 2.0 | 6.0 | 0.06 | 0.06 | 0.06 | 95 | 1018.8 |
| 20260502064003 | 56 | 138 | 2.0 | 4.0 | 0.06 | 0.06 | 0.06 | 94 | 1018.8 |
| 20260502063503 | 57 | 155 | 2.0 | 4.0 | 0.06 | 0.06 | 0.06 | 94 | 1018.7 |
| 20260502063003 | 57 | 161 | 2.0 | 4.0 | 0.06 | 0.06 | 0.06 | 93 | 1018.9 |
| 20260502062503 | 57 | 172 | 2.0 | 7.0 | 0.06 | 0.06 | 0.06 | 93 | 1018.7 |
| 20260502062003 | 57 | 187 | 4.0 | 10.0 | 0.05 | 0.05 | 0.05 | 91 | 1019.0 |
| 20260502061524 | 58 | 198 | 5.0 | 10.0 | 0.04 | 0.04 | 0.04 | 89 | 1019.0 |
| 20260502061024 | 58 | 189 | 5.0 | 10.0 | 0.00 | 0.00 | 0.00 | 87 | 1019.0 |
| 20260502060503 | 58 | 160 | 5.0 | 10.0 | 0.00 | 0.00 | 0.00 | 87 | 1019.1 |
| 20260502060024 | 58 | 147 | 4.0 | 9.0 | 0.00 | 0.00 | 0.00 | 87 | 1018.6 |